Date String (YYYY-MM-DD hh:mm:ss) UTC,Instrument flags,absolute air pressure of the measurement (hPa),sample flow rate (lpm),inlet stack bypass flow (lpm),air temperature of the measurement (°C),ambient temperature measured by the external sensor (°C),aerosol sample conditioner tube jacket temperature (°C),OPC LED temperature (°C),internal box temperature (°C),relative humidity of the measurement (%),span deviation,mass concentration of particles derived from Lorenz-Mie calculation of OPC scattering (μg/m³),mass concentration of particles derived from Lorenz-Mie calculation of OPC scattering (μg/m³),mass concentration of particles derived from Lorenz-Mie calculation of OPC scattering (μg/m³)
DateTimeUTC,F1_M11,P_M11,Q1_M11,Q2_M11,T1_M11,T2_M11,T3_M11,T4_M11,T5_M11,U1_M11,ZSPAN_M11,X2_M11,X0_M11,X1_M11
2024-06-16 22:00:00,SystemResetWarning,0822.9,4.99,000.00,028.8,027.8,000.0,037.2,030.6,026.4,0000.0,0007.07,0020.21,0005.19
2024-06-16 22:01:00,SystemResetWarning,0822.9,5.00,000.00,028.9,028.1,000.0,037.2,030.8,026.1,0000.0,0007.06,0019.80,0005.19
2024-06-16 22:02:00,SystemResetWarning,0822.9,5.00,000.00,029.0,028.4,000.0,037.2,030.9,026.0,0000.0,0007.09,0019.22,0005.21
2024-06-16 22:03:00,SystemResetWarning,0823.0,5.00,000.00,029.1,028.6,000.0,037.2,031.0,026.5,0000.0,0007.11,0018.69,0005.22
2024-06-16 22:04:00,SystemResetWarning,0822.9,5.00,000.00,029.2,028.8,000.0,037.3,031.1,026.2,0000.0,0007.11,0018.55,0005.22
2024-06-16 22:05:00,SystemResetWarning,0822.8,4.99,000.00,029.3,028.9,000.0,037.3,031.2,025.8,0000.0,0007.12,0018.77,0005.23
2024-06-16 22:06:00,SystemResetWarning,0822.9,4.99,000.00,029.2,027.4,000.0,037.4,030.4,025.9,0000.3,0007.17,0019.77,0005.23
2024-06-16 22:07:00,SystemResetWarning,0822.6,5.01,000.00,028.8,025.6,000.0,037.4,029.5,026.5,0000.3,0007.19,0019.84,0005.22
2024-06-16 22:08:00,SystemResetWarning,0822.6,5.01,000.00,028.6,025.7,000.0,037.4,029.5,027.0,0000.0,0007.20,0019.78,0005.23
2024-06-16 22:09:00,SystemResetWarning,0822.6,4.99,000.00,028.6,026.2,000.0,037.3,029.8,026.9,0000.0,0007.16,0022.12,0005.23
2024-06-16 22:10:00,SystemResetWarning,0822.6,4.99,000.00,028.6,026.7,000.0,037.2,030.0,027.2,0000.0,0007.17,0022.75,0005.24
2024-06-16 22:11:00,SystemResetWarning,0822.7,5.01,000.00,028.7,027.2,000.0,037.2,030.3,026.6,0000.0,0007.21,0022.78,0005.23
2024-06-16 22:12:00,SystemResetWarning,0822.7,5.00,000.00,028.8,027.6,000.0,037.1,030.5,026.6,0000.0,0007.20,0021.94,0005.25
2024-06-16 22:13:00,SystemResetWarning,0822.8,5.00,000.00,028.9,027.9,000.0,037.1,030.7,026.4,0000.0,0007.19,0022.58,0005.26
2024-06-16 22:14:00,SystemResetWarning,0822.8,5.00,000.00,028.9,028.2,000.0,037.2,030.8,026.2,0000.0,0007.19,0023.04,0005.27
2024-06-16 22:15:00,SystemResetWarning,0822.8,4.99,000.00,029.1,028.5,000.0,037.2,030.9,026.1,0000.0,0007.20,0022.81,0005.29
2024-06-16 22:16:00,SystemResetWarning,0822.7,4.99,000.00,029.2,028.7,000.0,037.2,031.1,026.1,0000.0,0007.18,0021.92,0005.29
2024-06-16 22:17:00,SystemResetWarning,0823.0,5.00,000.00,029.2,028.9,000.0,037.3,031.2,026.1,0000.0,0007.14,0020.97,0005.28
2024-06-16 22:18:00,SystemResetWarning,0822.7,5.00,000.00,029.2,028.1,000.0,037.4,030.8,026.3,0000.0,0007.12,0020.88,0005.28
2024-06-16 22:19:00,SystemResetWarning,0822.7,5.00,000.00,028.9,025.9,000.0,037.4,029.7,027.0,0000.0,0007.19,0022.25,0005.29
2024-06-16 22:20:00,SystemResetWarning,0822.7,5.02,000.00,028.6,025.5,000.0,037.4,029.5,026.9,0000.0,0007.25,0020.95,0005.31
2024-06-16 22:21:00,SystemResetWarning,0822.6,5.00,000.00,028.6,026.1,000.0,037.3,029.7,026.8,0000.0,0007.25,0020.83,0005.31
2024-06-16 22:22:00,SystemResetWarning,0822.7,5.00,000.00,028.6,026.5,000.0,037.2,030.0,027.0,0000.0,0007.25,0021.09,0005.32
2024-06-16 22:23:00,SystemResetWarning,0822.8,5.01,000.00,028.6,027.0,000.0,037.1,030.2,027.0,0000.0,0007.24,0021.39,0005.31
2024-06-16 22:24:00,SystemResetWarning,0822.8,5.00,000.00,028.7,027.4,000.0,037.1,030.4,027.1,0000.0,0007.23,0021.34,0005.31
2024-06-16 22:25:00,SystemResetWarning,0822.6,5.00,000.00,028.8,027.8,000.0,037.1,030.6,027.5,0000.0,0007.24,0022.26,0005.31
2024-06-16 22:26:00,SystemResetWarning,0822.7,5.01,000.00,028.9,028.1,000.0,037.1,030.7,027.5,0000.0,0007.29,0022.52,0005.32
2024-06-16 22:27:00,SystemResetWarning,0822.5,5.00,000.00,029.0,028.4,000.0,037.1,030.8,027.2,0000.0,0007.39,0023.66,0005.35
2024-06-16 22:28:00,SystemResetWarning,0822.5,5.00,000.00,029.1,028.6,000.0,037.2,031.0,026.5,0000.0,0007.43,0024.31,0005.38
2024-06-16 22:29:00,SystemResetWarning,0822.5,5.00,000.00,029.2,028.8,000.0,037.2,031.1,026.8,0000.0,0007.42,0024.98,0005.40
2024-06-16 22:30:00,SystemResetWarning,0822.6,4.98,000.00,029.3,029.0,000.0,037.3,031.2,026.8,0000.0,0007.37,0023.37,0005.41
2024-06-16 22:31:00,SystemResetWarning,0822.8,4.99,000.00,029.2,027.7,000.0,037.4,030.6,026.7,0000.0,0007.34,0023.92,0005.42
2024-06-16 22:32:00,SystemResetWarning,0822.4,5.01,000.00,028.9,025.8,000.0,037.4,029.6,026.6,0000.0,0007.34,0024.66,0005.44
2024-06-16 22:33:00,SystemResetWarning,0822.5,5.01,000.00,028.6,025.7,000.0,037.4,029.5,027.6,0000.0,0007.36,0024.97,0005.45
2024-06-16 22:34:00,SystemResetWarning,0822.7,5.00,000.00,028.6,026.3,000.0,037.3,029.8,028.1,0000.0,0007.43,0025.11,0005.48
2024-06-16 22:35:00,SystemResetWarning,0822.6,4.99,000.00,028.6,026.7,000.0,037.2,030.1,027.8,0000.0,0007.47,0026.07,0005.48
2024-06-16 22:36:00,SystemResetWarning,0822.9,5.01,000.00,028.7,027.2,000.0,037.2,030.3,027.8,0000.0,0007.51,0025.79,0005.48
2024-06-16 22:37:00,SystemResetWarning,0823.1,5.01,000.00,028.8,027.6,000.0,037.1,030.5,027.1,0000.0,0007.53,0025.76,0005.49
2024-06-16 22:38:00,SystemResetWarning,0823.1,4.99,000.00,028.9,028.0,000.0,037.2,030.7,026.7,0000.0,0007.44,0025.25,0005.48
2024-06-16 22:39:00,SystemResetWarning,0823.1,5.00,000.00,029.0,028.3,000.0,037.2,030.8,026.9,0000.0,0007.44,0026.18,0005.49
2024-06-16 22:40:00,SystemResetWarning,0823.0,5.00,000.00,029.1,028.5,000.0,037.2,031.0,026.5,0000.0,0007.52,0025.55,0005.51
2024-06-16 22:41:00,SystemResetWarning,0823.1,5.01,000.00,029.2,028.8,000.0,037.2,031.1,026.1,0000.0,0007.52,0026.50,0005.53
2024-06-16 22:42:00,SystemResetWarning,0823.1,5.00,000.00,029.2,028.8,000.0,037.3,031.1,026.2,0000.0,0007.53,0026.68,0005.52
2024-06-16 22:43:00,SystemResetWarning,0822.9,4.98,000.00,029.1,027.0,000.0,037.4,030.2,026.6,0000.0,0007.54,0025.30,0005.53
2024-06-16 22:44:00,SystemResetWarning,0822.4,5.02,000.00,028.7,025.3,000.0,037.4,029.4,027.5,0000.0,0007.54,0024.73,0005.54
2024-06-16 22:45:00,SystemResetWarning,0822.4,4.99,000.00,028.5,025.7,000.0,037.3,029.5,027.5,0000.0,0007.48,0026.40,0005.54
2024-06-16 22:46:00,SystemResetWarning,0822.4,4.99,000.00,028.5,026.3,000.0,037.2,029.8,027.5,0000.0,0007.46,0026.47,0005.55
2024-06-16 22:47:00,SystemResetWarning,0822.5,5.02,000.00,028.6,026.7,000.0,037.1,030.1,027.3,0000.0,0007.51,0025.14,0005.56
2024-06-16 22:48:00,SystemResetWarning,0822.5,5.00,000.00,028.6,027.2,000.0,037.1,030.3,027.6,0000.0,0007.41,0025.04,0005.56
2024-06-16 22:49:00,SystemResetWarning,0822.4,5.00,000.00,028.7,027.6,000.0,037.1,030.5,027.6,0000.0,0007.41,0026.01,0005.56
2024-06-16 22:50:00,SystemResetWarning,0822.4,5.00,000.00,028.8,028.0,000.0,037.1,030.7,027.2,0000.0,0007.42,0025.16,0005.55
2024-06-16 22:51:00,SystemResetWarning,0822.6,5.00,000.00,028.9,028.2,000.0,037.1,030.8,027.2,0000.0,0007.37,0026.44,0005.55
2024-06-16 22:52:00,SystemResetWarning,0822.6,4.99,000.00,029.0,028.5,000.0,037.2,030.9,026.9,0000.0,0007.37,0026.41,0005.55
2024-06-16 22:53:00,SystemResetWarning,0822.4,5.00,000.00,029.1,028.7,000.0,037.2,031.1,026.6,0000.0,0007.41,0025.37,0005.56
2024-06-16 22:54:00,SystemResetWarning,0822.5,5.00,000.00,029.2,028.4,000.0,037.3,030.9,026.6,0000.0,0007.42,0026.77,0005.56
2024-06-16 22:55:00,SystemResetWarning,0822.4,5.00,000.00,029.0,026.4,000.0,037.3,030.0,027.3,0000.8,0007.42,0027.60,0005.55
2024-06-16 22:56:00,SystemResetWarning,0822.4,5.00,000.00,028.6,025.4,000.0,037.3,029.4,028.1,0000.0,0007.47,0025.65,0005.54
2024-06-16 22:57:00,SystemResetWarning,0822.4,5.01,000.00,028.5,025.9,000.0,037.2,029.6,027.7,0000.0,0007.46,0024.99,0005.53
2024-06-16 22:58:00,SystemResetWarning,0822.4,5.00,000.00,028.5,026.4,000.0,037.2,029.9,028.1,0000.0,0007.34,0025.25,0005.52
2024-06-16 22:59:00,SystemResetWarning,0822.3,5.00,000.00,028.6,026.9,000.0,037.1,030.1,027.7,0000.0,0007.38,0024.96,0005.51
